Location: *
(48.8489°N, 2.3218°E)
Time: 05:36:24
(UTC+00:00)

NOSS 3-1 (C) - Pass Details

Date: 23 August 2019
Orbit: 775 x 1433 km, 63.4° (Epoch: 01 September)

Event Time Altitude Azimuth Distance (km) Brightness Sun altitude
Rises 21:27:34 0° 317° (NW) 3,928 8.2 -21.8°
Reaches altitude 10° 21:30:06 10° 316° (NW) 3,056 7.2 -22.1°
Maximum altitude 21:37:32 76° 233° (SW) 1,319 4.1 -22.8°
Enters shadow 21:41:04 39° 156° (SSE) 1,905 4.5 -23.2°
